Wind_Speed
24 23 23 22 13 14 22 25 20 13 4 6 8 8 21 17 16 6 7 11 9 9 7 7 5 3 2 2 3 3 4 5 5 5 5 8 8 8 8 6 5 5 5 6 7 10 11 11 13
26 24 24 23 19 23 30 26 24 10 4 5 1 8 17 14 10 9 7 4 9 9 5 4 6 6 4 3 3 4 5 5 6 6 7 9 9 9 8 7 6 6 5 6 8 10 11 12 14
24 26 25 20 27 36 35 27 23 10 8 8 3 5 16 17 16 12 12 6 7 3 4 7 7 9 8 6 6 6 6 7 7 6 8 10 10 10 9 8 7 6 7 7 9 10 10 11 13
22 25 27 28 29 34 38 28 25 17 17 12 10 9 14 18 12 12 14 15 13 11 11 10 13 13 14 13 10 9 8 7 8 8 8 11 11 10 10 8 8 7 7 8 10 11 11 12 14
22 25 30 30 38 36 31 28 27 22 22 20 15 13 13 18 18 18 13 13 10 13 15 13 15 18 19 18 16 14 12 11 11 10 10 11 13 12 12 11 10 9 8 8 10 11 11 12 13
26 27 25 37 38 33 29 26 29 23 18 23 21 17 16 17 17 16 14 13 15 14 14 16 16 19 21 21 18 16 15 13 12 12 11 12 14 15 14 13 12 11 10 11 12 12 13 13 14
30 32 36 37 34 31 26 26 28 23 25 26 21 24 19 20 18 15 16 20 16 16 12 14 18 20 22 21 20 19 16 15 14 14 14 14 15 16 16 15 14 14 14 13 14 14 14 15 15
29 34 39 38 35 33 21 26 24 12 17 13 19 25 20 24 21 18 18 20 16 13 12 16 18 18 20 21 22 20 20 19 17 17 17 17 16 16 17 16 15 15 14 14 14 15 14 13 13
31 38 44 41 34 27 20 22 18 11 8 7 16 19 15 23 21 19 22 22 26 20 16 15 17 15 18 20 22 23 23 21 20 20 19 17 16 16 17 18 17 16 15 15 15 15 15 15 15
36 45 46 39 33 26 24 22 22 15 7 5 14 20 18 20 19 16 16 20 23 20 19 18 15 14 16 20 22 22 22 21 20 19 17 17 17 16 16 17 18 17 16 16 15 15 16 17 17
39 49 43 41 32 25 26 26 23 16 12 5 7 12 18 21 23 23 25 25 19 18 17 15 18 19 20 20 20 19 18 19 18 17 17 17 16 16 17 17 17 17 17 17 18 19 19 20 21
43 45 40 36 32 29 28 26 32 24 19 11 9 11 14 14 16 17 20 20 23 19 16 19 20 15 17 23 22 17 13 17 19 17 18 17 17 16 15 16 16 17 18 20 20 21 23 23 24
44 41 37 34 33 32 28 34 34 33 23 18 14 14 19 21 20 20 22 23 24 22 21 22 21 23 21 22 24 27 30 23 20 22 24 21 17 20 18 16 16 16 18 20 23 25 27 28 30
41 36 35 37 34 32 34 36 34 38 26 23 24 21 18 19 22 25 26 26 24 25 25 23 21 24 21 11 17 23 17 33 37 26 24 23 20 21 20 15 14 15 16 18 20 22 25 28 29
38 38 36 36 32 34 24 41 46 35 30 26 28 23 26 25 26 28 29 30 30 25 24 24 17 19 16 11 9 14 21 29 24 27 24 22 17 15 14 12 11 11 14 14 15 19 18 22 25
31 38 41 36 24 29 31 52 41 32 29 29 24 27 25 27 34 33 33 33 35 31 25 23 18 14 18 13 12 17 22 24 31 26 22 17 11 10 10 10 12 12 14 16 19 20 24 24 24
38 32 39 39 32 30 40 42 36 32 28 27 28 23 20 23 27 30 30 33 30 29 31 21 15 9 11 13 15 22 23 27 27 25 20 17 12 7 10 14 15 18 21 20 24 23 24 24 26
34 34 34 27 35 33 39 40 33 29 28 28 28 30 24 22 20 24 25 26 28 25 20 19 17 15 11 16 26 27 27 30 27 21 17 15 14 13 15 16 20 21 19 22 19 22 23 25 26
21 42 30 31 26 28 36 34 31 30 31 30 27 24 32 28 23 23 22 22 26 25 16 16 18 15 12 16 22 27 25 24 17 19 15 11 12 13 16 18 16 15 17 19 22 21 26 27 20
47 32 36 25 18 26 29 34 32 34 34 33 28 24 22 26 25 25 25 24 20 17 16 15 13 13 14 17 14 13 16 18 15 13 11 11 11 10 9 10 11 12 12 12 14 17 19 19 19
51 47 35 22 21 30 24 31 28 27 31 30 30 25 22 24 32 27 26 23 21 19 16 17 16 14 16 14 13 10 14 15 15 11 10 10 8 8 9 13 16 18 18 19 21 23 25 25 26
43 44 33 25 24 17 17 8 26 23 24 23 26 28 26 24 28 29 27 24 21 20 22 20 20 16 15 14 12 12 13 15 16 14 13 12 12 14 15 18 21 22 23 24 25 25 27 29 29
42 26 31 25 30 23 31 11 21 17 19 19 20 27 28 31 27 28 28 29 27 24 24 25 15 19 18 19 17 15 16 18 18 17 18 17 18 19 21 23 24 25 26 26 27 29 30 31 32
33 22 24 23 23 14 31 20 12 17 23 21 22 21 28 26 29 27 24 32 29 28 26 23 22 22 21 20 18 18 19 21 20 21 21 20 21 24 26 27 26 27 28 29 30 31 34 37 40
32 27 5 7 8 11 14 16 21 14 17 24 24 17 17 24 25 20 21 28 30 29 27 25 23 21 22 22 20 20 21 22 23 22 23 25 27 28 27 27 27 28 29 31 35 38 41 45 45
32 32 10 6 5 5 9 10 10 20 18 20 13 12 21 23 27 19 22 24 22 26 27 26 25 24 25 26 22 22 22 23 26 26 27 28 26 24 23 24 26 28 32 36 40 43 46 47 47
31 34 40 7 2 4 13 11 13 23 19 16 14 13 19 20 25 23 26 28 32 26 31 28 29 28 29 27 25 24 23 24 25 26 25 22 22 23 26 28 30 33 37 41 45 46 46 46 46
25 31 25 25 7 4 3 17 13 20 20 22 22 19 22 27 30 31 32 32 31 29 26 21 20 19 17 18 20 20 22 23 22 22 22 23 25 28 31 33 36 39 42 46 47 46 46 45 42
32 35 23 27 18 7 4 5 14 18 16 16 27 24 27 31 32 35 35 33 25 16 16 11 14 15 17 18 18 19 19 19 20 21 23 26 28 32 35 38 40 42 44 46 46 45 43 41 40
39 31 36 19 7 11 16 5 15 14 14 14 20 26 25 30 32 34 36 30 23 20 19 10 11 13 14 15 17 18 19 20 22 24 26 29 32 35 38 40 41 42 42 43 43 41 40 39 38
Wind_Direction
247 246 246 249 239 233 239 238 244 243 275 321 277 233 195 186 185 257 189 184 203 203 176 155 183 182 169 232 266 269 277 271 267 251 219 193 186 181 173 166 154 142 138 142 144 142 144 144 146
246 245 241 241 231 233 239 238 238 246 254 209 68 312 207 209 231 270 273 221 197 197 181 190 215 226 202 222 249 258 256 253 243 233 214 197 193 188 182 177 167 156 153 150 151 152 151 152 153
240 240 240 227 231 239 245 240 252 234 205 186 347 265 247 258 268 257 254 165 184 247 217 223 233 240 232 226 231 238 242 243 237 228 215 206 199 193 191 188 183 175 167 164 162 161 158 156 156
234 231 230 230 233 242 250 258 264 251 220 218 267 297 258 266 260 247 238 249 268 258 229 251 232 234 237 226 224 230 235 238 243 227 216 211 206 202 198 199 196 194 184 178 173 168 164 164 166
233 228 229 234 236 245 247 250 259 258 255 228 234 268 254 240 262 250 239 260 260 245 256 247 235 233 235 233 222 221 224 226 227 223 218 213 212 208 205 206 204 202 196 189 185 181 178 175 176
230 229 230 236 242 243 244 245 251 253 249 248 247 263 265 234 230 211 217 241 238 245 255 260 251 238 233 235 232 227 226 228 232 233 228 222 220 214 209 209 207 207 204 199 194 193 191 187 187
228 232 236 243 251 249 244 243 248 253 254 248 251 267 258 227 207 204 218 249 241 248 259 258 255 248 239 235 237 235 233 232 232 232 231 229 225 222 218 216 211 208 206 204 201 200 202 199 195
235 237 240 241 244 252 249 242 242 255 255 250 264 256 248 225 209 210 218 237 239 247 261 260 252 251 245 241 239 238 238 235 233 233 233 230 228 227 224 221 223 221 215 211 208 207 210 211 210
233 232 237 239 243 249 247 245 224 255 288 280 249 233 223 216 215 215 224 236 263 259 275 261 243 239 243 243 243 242 241 239 237 236 237 235 232 230 229 227 225 226 226 221 217 215 214 216 218
231 239 241 245 247 247 248 241 215 236 213 286 253 227 209 216 226 228 235 248 252 263 270 254 248 242 233 234 236 241 247 251 251 249 247 243 240 238 236 236 234 233 230 228 226 223 223 224 227
237 242 246 250 253 253 253 241 230 234 197 199 189 216 228 227 231 233 241 243 251 248 252 252 255 249 236 234 233 240 248 257 260 261 259 253 248 246 243 244 243 241 238 233 229 227 224 223 225
238 243 248 254 253 252 248 243 228 227 207 199 214 203 201 219 222 227 231 235 249 255 252 259 266 254 250 235 223 220 250 259 261 257 262 256 257 255 256 252 250 247 245 244 239 238 235 232 230
241 246 251 252 251 248 244 243 238 226 211 209 218 224 207 212 218 220 227 231 245 256 261 261 262 269 251 246 249 252 253 257 250 247 251 251 253 261 262 257 257 253 253 252 250 247 246 246 245
247 250 255 253 249 249 244 238 241 227 217 225 219 227 235 227 235 239 241 247 247 252 254 251 260 259 261 263 264 244 245 238 243 244 247 254 256 262 264 270 275 276 267 266 270 274 275 274 271
248 251 251 249 244 242 242 240 233 233 226 232 232 239 233 243 246 254 254 253 256 255 250 256 254 264 271 254 248 241 236 242 239 241 247 238 249 257 268 266 260 262 266 271 277 280 282 281 273
246 244 243 237 228 226 218 243 229 234 228 229 235 239 242 238 245 248 248 255 256 252 248 253 251 254 259 258 257 261 243 234 222 244 236 241 231 255 265 249 258 268 280 280 287 283 290 287 279
232 239 239 242 221 215 216 246 235 240 239 243 239 242 244 241 237 243 245 248 256 259 253 242 233 216 233 259 256 265 243 226 224 234 237 230 224 231 254 265 281 288 289 288 290 281 281 277 281
219 230 233 230 222 218 219 245 242 244 248 249 241 242 241 235 231 242 249 257 258 251 239 221 216 224 241 264 253 250 231 232 229 217 221 222 239 263 282 290 295 295 293 293 281 288 283 282 289
227 226 234 240 233 232 231 245 247 244 245 244 242 244 232 231 231 241 252 254 247 236 211 208 224 239 234 241 251 247 226 217 215 214 230 245 270 291 294 292 304 317 308 293 283 279 281 289 294
222 227 231 241 223 237 242 247 250 247 251 248 237 243 242 227 222 229 236 243 232 227 219 223 224 209 240 232 215 206 218 226 224 241 262 266 265 277 287 293 302 308 311 310 298 289 291 292 291
223 225 230 238 238 239 250 257 252 245 252 241 237 240 228 219 224 221 228 233 233 221 218 202 196 218 217 199 203 223 234 245 254 252 254 246 259 267 278 291 296 298 296 294 290 291 294 297 299
223 225 233 237 243 251 240 272 260 264 257 235 232 242 215 215 213 218 228 225 221 214 204 213 227 207 196 225 219 240 243 249 244 248 255 262 271 276 285 292 295 294 292 290 290 294 296 296 297
224 223 226 232 238 257 247 260 269 270 239 249 225 212 220 223 214 218 223 222 222 216 215 212 216 196 218 216 234 247 253 255 245 246 254 263 274 284 290 293 294 294 294 295 298 299 299 299 299
221 217 222 227 237 243 242 222 235 249 204 199 197 208 217 229 211 222 224 220 221 207 209 213 216 214 218 232 245 245 253 256 253 253 259 268 276 281 286 290 294 296 298 300 300 302 301 300 297
206 199 175 204 204 235 222 217 226 244 216 210 216 221 203 206 214 223 229 214 210 207 212 219 225 224 230 236 253 249 250 255 258 257 264 267 272 278 282 288 290 294 297 300 300 300 300 299 296
205 194 168 179 171 173 199 207 196 227 226 226 228 224 204 207 220 225 213 213 206 220 216 220 226 229 239 244 249 249 253 250 249 252 257 263 268 275 280 284 288 292 295 297 298 299 299 297 295
205 198 210 258 258 143 192 192 188 194 211 225 230 217 209 215 208 208 205 204 211 224 234 226 231 229 234 234 233 231 233 238 245 252 257 264 269 275 279 285 290 293 295 297 299 300 298 296 294
206 210 199 225 188 183 247 176 181 208 223 235 237 232 207 204 214 218 219 216 220 222 231 228 227 225 229 231 228 224 225 231 239 248 258 267 275 281 285 289 293 295 296 297 299 298 296 295 293
202 214 209 216 222 172 141 209 205 219 227 238 228 229 216 217 213 215 216 217 204 220 251 249 244 233 233 235 235 235 237 240 247 255 262 269 276 281 287 293 295 296 295 296 296 296 296 296 296
208 213 216 216 187 212 193 170 184 189 205 227 231 212 212 214 215 216 218 220 229 212 230 244 237 235 237 242 243 245 250 256 261 266 271 277 282 288 293 295 295 294 294 295 296 298 299 300 300
Height
3147 3149 3151 3153 3158 3152 3149 3148 3149 3151 3155 3155 3153 3154 3157 3158 3157 3159 3155 3155 3155 3157 3157 3158 3159 3160 3160 3161 3162 3164 3164 3165 3165 3165 3166 3167 3168 3169 3170 3171 3171 3172 3173 3174 3175 3175 3176 3177 3177
3143 3145 3148 3147 3148 3145 3142 3144 3146 3151 3152 3152 3153 3154 3157 3157 3156 3156 3156 3155 3156 3157 3158 3159 3160 3161 3161 3162 3163 3164 3165 3165 3166 3165 3166 3167 3168 3169 3170 3172 3172 3173 3174 3175 3175 3176 3177 3178 3178
3138 3140 3143 3142 3138 3137 3137 3142 3146 3149 3149 3150 3151 3152 3154 3155 3155 3155 3155 3156 3157 3158 3158 3159 3160 3161 3162 3162 3163 3164 3165 3166 3166 3166 3167 3168 3169 3170 3171 3172 3173 3174 3174 3175 3175 3177 3178 3180 3181
3132 3135 3137 3132 3131 3134 3135 3143 3143 3146 3146 3147 3148 3149 3151 3152 3153 3154 3154 3155 3156 3157 3158 3158 3159 3160 3162 3162 3162 3163 3165 3166 3167 3167 3167 3168 3169 3170 3171 3172 3173 3174 3175 3176 3176 3177 3178 3180 3181
3128 3129 3128 3125 3126 3131 3135 3139 3140 3143 3143 3144 3145 3145 3148 3148 3151 3152 3152 3154 3154 3155 3157 3157 3158 3159 3160 3161 3161 3162 3163 3165 3165 3166 3167 3168 3169 3170 3171 3172 3173 3174 3175 3176 3177 3178 3179 3180 3181
3124 3125 3121 3118 3121 3128 3131 3135 3135 3138 3141 3140 3139 3141 3142 3146 3148 3149 3151 3152 3152 3153 3155 3156 3156 3158 3159 3161 3162 3162 3163 3164 3166 3166 3166 3167 3168 3168 3169 3171 3172 3173 3175 3176 3177 3177 3178 3179 3181
3118 3117 3113 3114 3118 3123 3129 3130 3130 3134 3133 3134 3136 3135 3138 3143 3144 3147 3149 3150 3150 3152 3152 3154 3154 3156 3158 3160 3161 3162 3163 3164 3165 3165 3166 3166 3167 3167 3168 3169 3170 3170 3172 3174 3176 3177 3177 3179 3180
3115 3113 3108 3109 3114 3118 3125 3125 3128 3130 3128 3129 3129 3127 3133 3139 3140 3143 3145 3147 3147 3149 3150 3151 3152 3155 3157 3159 3160 3161 3162 3162 3163 3163 3164 3164 3165 3166 3167 3168 3169 3170 3172 3173 3174 3176 3178 3179 3181
3108 3105 3099 3105 3113 3119 3121 3123 3126 3128 3126 3125 3125 3127 3132 3131 3134 3138 3142 3144 3144 3146 3147 3149 3151 3152 3155 3157 3158 3159 3160 3161 3161 3162 3162 3163 3163 3164 3165 3166 3167 3168 3171 3172 3173 3175 3176 3178 3179
3101 3095 3094 3104 3111 3116 3116 3120 3123 3123 3123 3124 3124 3126 3127 3126 3130 3134 3139 3141 3142 3143 3145 3146 3149 3150 3151 3152 3154 3156 3159 3161 3162 3163 3163 3163 3163 3163 3163 3165 3166 3167 3169 3171 3172 3173 3175 3177 3177
3092 3083 3093 3099 3108 3113 3113 3114 3118 3117 3118 3122 3123 3124 3123 3128 3127 3130 3134 3136 3140 3141 3143 3143 3145 3147 3148 3150 3152 3154 3156 3159 3161 3162 3162 3162 3162 3161 3162 3163 3165 3166 3167 3168 3169 3170 3171 3172 3173
3084 3082 3091 3099 3104 3106 3107 3110 3109 3111 3115 3117 3122 3124 3124 3123 3125 3126 3129 3134 3135 3136 3139 3140 3143 3145 3148 3148 3149 3150 3153 3156 3158 3159 3160 3160 3161 3160 3161 3161 3162 3163 3164 3165 3166 3167 3167 3168 3168
3076 3082 3089 3094 3098 3100 3103 3099 3103 3104 3110 3113 3115 3120 3122 3123 3122 3125 3126 3129 3130 3133 3135 3136 3139 3141 3145 3147 3149 3150 3150 3151 3152 3155 3156 3159 3157 3158 3158 3158 3159 3161 3161 3162 3162 3163 3163 3164 3164
3074 3080 3084 3087 3090 3093 3095 3094 3096 3099 3105 3107 3110 3114 3117 3119 3120 3121 3123 3124 3126 3129 3131 3133 3135 3137 3141 3145 3146 3146 3143 3147 3147 3151 3153 3154 3154 3155 3156 3155 3157 3159 3159 3160 3161 3162 3163 3164 3164
3072 3073 3076 3076 3082 3085 3093 3083 3083 3095 3099 3101 3104 3108 3112 3115 3115 3117 3120 3121 3122 3125 3127 3128 3131 3133 3136 3140 3141 3139 3140 3142 3145 3147 3150 3150 3151 3151 3153 3153 3154 3155 3157 3157 3158 3158 3159 3158 3157
3065 3067 3064 3068 3077 3081 3086 3066 3082 3090 3093 3094 3098 3102 3106 3110 3111 3112 3113 3116 3118 3120 3122 3124 3127 3130 3132 3135 3137 3138 3137 3136 3140 3145 3145 3145 3146 3149 3150 3149 3150 3152 3153 3154 3155 3154 3154 3154 3154
3057 3054 3056 3064 3070 3075 3074 3066 3077 3083 3086 3089 3093 3096 3100 3103 3105 3105 3107 3110 3112 3115 3117 3120 3124 3127 3130 3132 3134 3135 3134 3134 3137 3140 3142 3143 3142 3144 3146 3143 3145 3147 3148 3149 3149 3148 3148 3147 3147
3044 3049 3054 3057 3065 3069 3068 3064 3072 3077 3079 3083 3087 3090 3094 3097 3099 3101 3103 3105 3107 3109 3112 3115 3119 3122 3126 3128 3128 3128 3129 3131 3134 3134 3138 3139 3139 3141 3140 3140 3142 3143 3144 3144 3143 3143 3144 3144 3141
3044 3047 3049 3054 3062 3064 3063 3063 3067 3072 3073 3075 3079 3082 3085 3091 3095 3096 3099 3100 3101 3104 3107 3110 3115 3118 3122 3125 3124 3124 3125 3126 3123 3128 3132 3133 3135 3136 3136 3137 3137 3138 3139 3139 3140 3139 3139 3138 3135
3037 3041 3043 3051 3057 3058 3060 3059 3063 3066 3066 3069 3073 3076 3079 3084 3087 3090 3093 3096 3099 3102 3105 3108 3112 3116 3119 3120 3121 3122 3123 3123 3127 3128 3130 3133 3134 3134 3135 3136 3136 3136 3136 3135 3135 3136 3135 3134 3130
3027 3031 3039 3048 3055 3055 3056 3052 3055 3058 3059 3061 3065 3069 3072 3076 3080 3085 3089 3093 3096 3098 3102 3105 3109 3113 3115 3116 3118 3120 3121 3122 3124 3125 3128 3130 3131 3132 3133 3133 3133 3133 3133 3133 3133 3132 3130 3128 3125
3021 3029 3039 3046 3051 3050 3055 3049 3050 3052 3052 3055 3058 3063 3066 3071 3074 3080 3085 3088 3092 3095 3099 3102 3105 3109 3112 3114 3116 3118 3120 3120 3122 3123 3123 3125 3127 3129 3129 3129 3128 3128 3127 3127 3127 3124 3122 3122 3120
3014 3027 3035 3041 3044 3048 3045 3050 3045 3047 3047 3049 3052 3057 3061 3066 3071 3076 3080 3084 3086 3090 3094 3098 3102 3105 3110 3112 3114 3116 3116 3117 3119 3121 3121 3123 3123 3124 3123 3122 3122 3122 3122 3120 3119 3117 3115 3113 3112
3016 3026 3032 3037 3042 3040 3034 3044 3043 3044 3047 3048 3049 3052 3057 3061 3067 3072 3076 3080 3083 3086 3091 3096 3101 3103 3107 3109 3110 3111 3113 3114 3114 3116 3118 3117 3117 3117 3117 3118 3116 3116 3115 3113 3112 3110 3108 3104 3104
3012 3018 3026 3035 3035 3026 3029 3037 3038 3042 3044 3046 3046 3050 3054 3059 3064 3069 3072 3077 3081 3084 3087 3093 3096 3100 3102 3105 3107 3108 3109 3108 3109 3110 3111 3112 3112 3112 3112 3112 3111 3110 3108 3107 3105 3102 3099 3096 3094
3001 3008 3012 3021 3025 3024 3027 3027 3030 3039 3041 3042 3044 3047 3052 3055 3061 3067 3069 3076 3080 3085 3085 3090 3094 3095 3098 3098 3101 3102 3103 3105 3105 3105 3106 3107 3107 3106 3106 3106 3105 3104 3102 3099 3097 3093 3090 3085 3081
2995 3001 3007 3014 3016 3017 3019 3024 3028 3033 3036 3039 3041 3044 3048 3052 3057 3062 3067 3071 3077 3079 3084 3086 3089 3091 3092 3093 3094 3096 3098 3099 3100 3100 3100 3100 3100 3100 3100 3099 3098 3097 3095 3092 3088 3084 3080 3075 3071
2989 2997 3007 3011 3015 3017 3014 3015 3019 3027 3032 3035 3038 3042 3045 3049 3056 3058 3063 3069 3072 3073 3078 3082 3084 3086 3088 3089 3090 3091 3093 3095 3095 3096 3096 3095 3095 3094 3093 3092 3091 3088 3085 3081 3077 3074 3070 3065 3063
2982 2988 2996 3003 3005 3008 3016 3014 3016 3022 3028 3031 3034 3038 3043 3049 3052 3055 3060 3064 3069 3071 3075 3080 3082 3083 3084 3086 3088 3090 3091 3092 3092 3092 3092 3091 3090 3089 3086 3085 3083 3079 3076 3071 3067 3063 3059 3055 3052
2976 2983 2989 2992 2998 3002 3003 3011 3013 3019 3024 3027 3029 3034 3040 3047 3051 3054 3057 3062 3067 3068 3075 3079 3079 3081 3083 3084 3085 3087 3088 3088 3088 3088 3087 3085 3084 3081 3079 3076 3074 3070 3065 3061 3055 3052 3048 3045 3041